sat.trackr.live / text

‹ back to catalog

STARLINK-31374

NORAD 59404 · 2024-064G

PAYLOAD ACTIVE UNKNOWN

§ Identity

Operator
Country
US
Launch date
2024-04-05
Launch site
AFETR
Launch vehicle
Mass (kg)
RCS (m²)

Purposes: comms

External: N2YO · Heavens-Above · Gunter

§ Orbital elements

Epoch: 2026-05-24T19:57:26.182656Z

Period
94.27 min
Inclination
43.0009°
Eccentricity
0.0001282
Mean motion
15.27575598 rev/d
Perigee alt
482.2 km
Apogee alt
483.9 km
Semi-major
6,861.2 km
B*
-5.5197e-6
RAAN
295.1046°
Arg perigee
269.5927°
Mean anomaly
90.4778°
Rev number
12,120

§ Raw data

STARLINK-313741 59404U 24064G   26144.83155304 -.00000414  00000+0 -55197-5 0  99962 59404  43.0009 295.1046 0001282 269.5927  90.4778 15.27575598121205

JSON: /api/v1/satellites/59404 · /tle

For live sub-satellite position, see the globe view (requires WebGL).

§ Visibility from observer

Set your observer location to see the next 7 days of passes ≥ 10°. The values pass through the URL so the page stays shareable.

No JS? Fill the form by hand. The geolocation button needs JavaScript.